Change the Weather History Date:

Tuesday, January 27, 2004

  Actual Average Record
Temperature  
Mean Temperature 22 °F 30 °F  
Max Temperature 30 °F 39 °F 60 °F (1999)
Min Temperature 12 °F 21 °F -11 °F (2003)
Degree Days  
Heating Degree Days 43 35  
Month to date heating degree days 967  
Since 1 July heating degree days 3040  
Cooling Degree Days 0 0  
Month to date cooling degree days 0  
Year to date cooling degree days 0  
Moisture  
Dew Point 19 °F    
Average Humidity 91    
Maximum Humidity 100    
Minimum Humidity 68    
Precipitation  
Precipitation 0.24 in 0.09 in 0.43 in (2009)
Month to date precipitation 2.95  
Year to date precipitation 2.95  
Sea Level Pressure  
Sea Level Pressure 29.85 in    
Wind  
Wind Speed 10 mph (West)    
Max Wind Speed 21 mph    
Max Gust Speed 26 mph    
Visibility 2 miles    
Events Fog , Rain , Snow , Thunderstorm    
T = Trace of Precipitation, MM = Missing Value Source: NWS Daily Summary

Daily Weather History Graph

Daily Weather History Graph

Search for Another Location

Airport or City:

Trip Planner

Search our weather history database for the weather conditions in past years. The results will help you decide how hot, cold, wet, or windy it might be!

Date:

Astronomy

Jan. 27, 2004 Rise Set
Actual Time 7:57 AM EST 6:00 PM EST
Civil Twilight 7:29 AM EST 6:29 PM EST
Nautical Twilight 6:56 AM EST 7:01 PM EST
Astronomical Twilight 6:25 AM EST 7:33 PM EST
Moon 11:19 AM EST (1/27) No Moon Set
Length of Visible Light 11h 00m
Length of Day
10h 03m
Waxing Crescent, 35% of the Moon is Illuminated
Jan 27
Waxing Crescent
Jan 29
First Quarter
Feb 6
Full
Feb 13
Last Quarter
Feb 20
New

Hourly Weather History & Observations

Time (EST) Temp. Windchill Dew Point Humidity Pressure Visibility Wind Dir Wind Speed Gust Speed Precip Events Conditions
12:11 AM 30.2 °F - 30.2 °F 100% 29.69 in 3.0 mi Calm Calm - N/A   Overcast
12:31 AM 28.4 °F 23.3 °F 28.4 °F 100% 29.68 in 2.5 mi NW 4.6 mph - N/A   Overcast
12:53 AM 28.9 °F 23.9 °F 28.9 °F 100% 29.70 in 2.5 mi WNW 4.6 mph - N/A   Overcast
1:05 AM 28.4 °F 22.2 °F 28.4 °F 100% 29.68 in 2.5 mi West 5.8 mph - 0.00 in Rain Light Freezing Rain
1:20 AM 28.4 °F 20.4 °F 28.4 °F 100% 29.69 in 1.8 mi West 8.1 mph - 0.04 in Rain Light Freezing Rain
1:34 AM 28.4 °F 22.2 °F 28.4 °F 100% 29.68 in 2.5 mi WNW 5.8 mph - 0.07 in Rain Light Freezing Rain
1:41 AM 28.4 °F 20.4 °F 28.4 °F 100% 29.66 in 3.0 mi WNW 8.1 mph - 0.08 in Rain Light Freezing Rain
1:53 AM 28.0 °F 22.8 °F 28.0 °F 100% 29.68 in 3.0 mi West 4.6 mph - 0.09 in Rain Light Freezing Rain
2:03 AM 28.4 °F 24.6 °F 28.4 °F 100% 29.67 in 4.0 mi West 3.5 mph - 0.01 in Rain , Thunderstorm Light Freezing Rain
2:08 AM 28.4 °F 22.2 °F 28.4 °F 100% 29.67 in 2.5 mi West 5.8 mph - 0.02 in Snow , Thunderstorm Light Snow
2:12 AM 28.4 °F 23.3 °F 28.4 °F 100% 29.67 in 1.5 mi West 4.6 mph - 0.03 in Snow Light Snow
2:21 AM 28.4 °F - 28.4 °F 100% 29.65 in 0.5 mi Calm Calm - 0.05 in Fog , Snow Snow
2:32 AM 28.4 °F 20.4 °F 28.4 °F 100% 29.66 in 0.2 mi West 8.1 mph - 0.10 in Fog , Snow Heavy Snow
2:40 AM 28.4 °F 22.2 °F 28.4 °F 100% 29.66 in 0.5 mi West 5.8 mph - 0.11 in Fog , Snow Snow
2:53 AM 27.0 °F 15.2 °F 27.0 °F 100% 29.74 in 0.8 mi WSW 15.0 mph - 0.12 in Snow Light Snow
3:00 AM 26.6 °F 16.8 °F 26.6 °F 100% 29.69 in 1.5 mi West 10.4 mph 21.9 mph 0.01 in Snow Light Snow
3:07 AM 26.6 °F 17.5 °F 26.6 °F 100% 29.67 in 1.2 mi West 9.2 mph - 0.01 in Snow Light Snow
3:15 AM 26.6 °F 16.2 °F 26.6 °F 100% 29.69 in 0.8 mi West 11.5 mph - 0.01 in Snow Light Snow
3:26 AM 26.6 °F 16.2 °F 26.6 °F 100% 29.70 in 1.0 mi West 11.5 mph - 0.02 in Snow Light Snow
3:34 AM 26.6 °F 16.8 °F 26.6 °F 100% 29.69 in 2.0 mi West 10.4 mph - 0.02 in Snow Light Snow
3:53 AM 25.0 °F 15.5 °F 25.0 °F 100% 29.72 in 2.0 mi West 9.2 mph - 0.02 in Snow Light Snow
3:56 AM 24.8 °F 14.6 °F 24.8 °F 100% 29.69 in 2.0 mi West 10.4 mph - 0.00 in Snow Light Snow
4:04 AM 24.8 °F 14.6 °F 24.8 °F 100% 29.69 in 1.0 mi West 10.4 mph - 0.00 in Snow Light Snow
4:23 AM 24.8 °F 15.3 °F 24.8 °F 100% 29.70 in 1.5 mi West 9.2 mph - 0.00 in Snow Light Snow
4:30 AM 24.8 °F 15.3 °F 24.8 °F 100% 29.70 in 3.0 mi West 9.2 mph - 0.00 in Snow Light Snow
4:53 AM 24.1 °F 13.7 °F 24.1 °F 100% 29.73 in 5.0 mi WSW 10.4 mph - 0.00 in Snow Light Snow
5:53 AM 24.1 °F 12.5 °F 21.9 °F 91% 29.75 in 10.0 mi West 12.7 mph - 0.00 in   Overcast
6:29 AM 23.0 °F 13.1 °F 21.2 °F 93% 29.73 in 10.0 mi WSW 9.2 mph - N/A   Overcast
6:53 AM 23.0 °F 12.4 °F 21.0 °F 92% 29.77 in 6.0 mi WSW 10.4 mph - N/A   Overcast
7:53 AM 21.9 °F 10.4 °F 19.9 °F 92% 29.78 in 3.0 mi WSW 11.5 mph - 0.00 in Snow Light Snow
8:53 AM 21.9 °F 10.4 °F 19.0 °F 89% 29.81 in 4.0 mi SW 11.5 mph - 0.00 in Snow Light Snow
8:59 AM 21.2 °F 8.3 °F 19.4 °F 93% 29.78 in 1.8 mi SW 13.8 mph - 0.00 in Snow Light Snow
9:24 AM 21.2 °F 8.9 °F 19.4 °F 93% 29.78 in 0.8 mi WSW 12.7 mph 20.7 mph 0.00 in Snow Light Snow
9:33 AM 21.2 °F 8.9 °F 19.4 °F 93% 29.79 in 0.5 mi WSW 12.7 mph - 0.00 in Fog , Snow Snow
9:40 AM 21.2 °F 8.9 °F 19.4 °F 93% 29.79 in 0.2 mi WSW 12.7 mph - 0.00 in Fog , Snow Heavy Snow
9:53 AM 21.0 °F 7.6 °F 19.9 °F 96% 29.82 in 0.5 mi WSW 15.0 mph 19.6 mph 0.00 in Fog , Snow Snow
10:11 AM 21.2 °F 8.9 °F 19.4 °F 93% 29.79 in 1.0 mi WSW 12.7 mph - 0.00 in Snow Light Snow
10:23 AM 21.2 °F 8.3 °F 19.4 °F 93% 29.79 in 1.8 mi WSW 13.8 mph 20.7 mph 0.00 in Snow Light Snow
10:27 AM 21.2 °F 6.4 °F 17.6 °F 86% 29.79 in 3.0 mi WSW 18.4 mph - 0.01 in Snow Light Snow
10:53 AM 21.9 °F 9.2 °F 19.0 °F 89% 29.83 in 2.5 mi WSW 13.8 mph 21.9 mph 0.01 in Snow Light Snow
11:03 AM 21.2 °F 6.8 °F 19.4 °F 93% 29.81 in 1.2 mi WSW 17.3 mph - 0.00 in Snow Light Snow
11:12 AM 21.2 °F 8.3 °F 19.4 °F 93% 29.81 in 0.8 mi WSW 13.8 mph - 0.00 in Snow Light Snow
11:34 AM 21.2 °F 8.3 °F 19.4 °F 93% 29.82 in 0.8 mi WSW 13.8 mph - 0.00 in Snow Light Snow
11:43 AM 21.2 °F 9.5 °F 19.4 °F 93% 29.82 in 0.8 mi WSW 11.5 mph 19.6 mph 0.00 in Snow Light Snow
11:53 AM 21.9 °F 8.2 °F 19.9 °F 92% 29.85 in 0.8 mi WSW 16.1 mph 20.7 mph 0.00 in Snow Light Snow
12:05 PM 21.2 °F 6.8 °F 19.4 °F 93% 29.82 in 1.2 mi WSW 17.3 mph - 0.00 in Snow Light Snow
12:16 PM 21.2 °F 6.8 °F 19.4 °F 93% 29.83 in 2.5 mi WSW 17.3 mph 20.7 mph 0.00 in Snow Light Snow
12:29 PM 21.2 °F 7.3 °F 17.6 °F 86% 29.83 in 1.8 mi WSW 16.1 mph 23.0 mph 0.00 in Snow Light Snow
12:37 PM 21.2 °F 8.9 °F 17.6 °F 86% 29.83 in 2.0 mi West 12.7 mph - 0.00 in Snow Light Snow
12:46 PM 21.2 °F 7.8 °F 17.6 °F 86% 29.83 in 1.2 mi WSW 15.0 mph - 0.00 in Snow Light Snow
12:53 PM 21.0 °F 6.6 °F 18.0 °F 88% 29.86 in 1.0 mi WSW 17.3 mph - 0.00 in Snow Light Snow
1:03 PM 21.2 °F 6.8 °F 17.6 °F 86% 29.84 in 0.8 mi WSW 17.3 mph - 0.00 in Snow Light Snow
1:11 PM 21.2 °F 7.3 °F 17.6 °F 86% 29.84 in 1.2 mi WSW 16.1 mph - 0.00 in Snow Light Snow
1:53 PM 21.0 °F 8.1 °F 17.1 °F 85% 29.87 in 2.0 mi WSW 13.8 mph 24.2 mph 0.00 in Snow Light Snow
2:13 PM 21.2 °F 7.3 °F 17.6 °F 86% 29.85 in 4.0 mi WSW 16.1 mph - 0.00 in Snow Light Snow
2:37 PM 21.2 °F 6.8 °F 15.8 °F 80% 29.85 in 2.5 mi WSW 17.3 mph 26.5 mph 0.00 in Snow Light Snow
2:53 PM 21.0 °F 7.1 °F 16.0 °F 81% 29.89 in 3.0 mi WSW 16.1 mph 24.2 mph 0.00 in Snow Light Snow
3:08 PM 21.2 °F 6.4 °F 17.6 °F 86% 29.87 in 1.8 mi WSW 18.4 mph 24.2 mph 0.00 in Snow Light Snow
3:53 PM 19.9 °F 5.2 °F 15.1 °F 81% 29.93 in 2.5 mi West 17.3 mph - 0.00 in Snow Light Snow
4:00 PM 19.4 °F 3.2 °F 15.8 °F 86% 29.90 in 4.0 mi West 20.7 mph 25.3 mph 0.00 in Snow Light Snow
4:36 PM 19.4 °F 5.5 °F 14.0 °F 80% 29.92 in 2.5 mi WSW 15.0 mph 20.7 mph 0.00 in Snow Light Snow
4:53 PM 19.0 °F 4.0 °F 12.9 °F 77% 29.96 in 5.0 mi West 17.3 mph 20.7 mph 0.00 in Snow Light Snow
5:01 PM 19.4 °F 4.1 °F 10.4 °F 68% 29.93 in 8.0 mi West 18.4 mph 25.3 mph 0.00 in   Overcast
5:26 PM 17.6 °F 5.7 °F 14.0 °F 86% 29.95 in 1.8 mi West 10.4 mph 20.7 mph 0.00 in Snow Light Snow
5:39 PM 17.6 °F 1.7 °F 12.2 °F 79% 29.96 in 1.8 mi West 18.4 mph 21.9 mph 0.00 in Snow Light Snow
5:43 PM 17.6 °F 4.3 °F 12.2 °F 79% 29.96 in 3.0 mi West 12.7 mph 21.9 mph 0.00 in Snow Light Snow
5:53 PM 18.0 °F 5.4 °F 12.9 °F 81% 30.00 in 4.0 mi West 11.5 mph 17.3 mph 0.00 in Snow Light Snow
6:00 PM 17.6 °F 4.3 °F 12.2 °F 79% 29.97 in 6.0 mi West 12.7 mph - 0.00 in Snow Light Snow
6:08 PM 17.6 °F 5.0 °F 14.0 °F 86% 29.97 in 2.5 mi West 11.5 mph 20.7 mph 0.00 in Snow Light Snow
6:19 PM 17.6 °F 5.7 °F 14.0 °F 86% 29.98 in 1.5 mi West 10.4 mph 20.7 mph 0.00 in Snow Light Snow
6:53 PM 17.1 °F 4.3 °F 15.1 °F 92% 30.04 in 1.0 mi West 11.5 mph 17.3 mph 0.00 in Snow Light Snow
7:06 PM 17.6 °F 6.4 °F 14.0 °F 86% 30.01 in 1.8 mi West 9.2 mph 19.6 mph 0.00 in Snow Light Snow
7:40 PM 15.8 °F 2.1 °F 12.2 °F 86% 30.02 in 1.5 mi West 12.7 mph 23.0 mph 0.00 in Snow Light Snow
7:53 PM 16.0 °F 2.3 °F 12.9 °F 88% 30.07 in 1.0 mi West 12.7 mph - 0.00 in Snow Light Snow
7:59 PM 15.8 °F 3.4 °F 12.2 °F 86% 30.03 in 0.8 mi West 10.4 mph - 0.00 in Snow Light Snow
8:13 PM 15.8 °F 3.4 °F 12.2 °F 86% 30.04 in 1.0 mi West 10.4 mph 19.6 mph 0.00 in Snow Light Snow
8:32 PM 15.8 °F 1.4 °F 12.2 °F 86% 30.04 in 1.5 mi West 13.8 mph 19.6 mph 0.00 in Snow Light Snow
8:39 PM 15.8 °F 1.4 °F 12.2 °F 86% 30.04 in 3.0 mi West 13.8 mph - 0.00 in Snow Light Snow
8:53 PM 15.1 °F -0.1 °F 12.0 °F 88% 30.09 in 2.5 mi West 15.0 mph - 0.00 in Snow Light Snow
9:07 PM 15.8 °F 0.9 °F 12.2 °F 86% 30.05 in 1.5 mi West 15.0 mph 20.7 mph 0.00 in Snow Light Snow
9:36 PM 14.0 °F 0.5 °F 12.2 °F 93% 30.07 in 0.8 mi West 11.5 mph - 0.00 in Snow Light Snow
9:39 PM 14.0 °F 2.0 °F 12.2 °F 93% 30.07 in 1.0 mi West 9.2 mph - 0.00 in Snow Light Snow
9:53 PM 14.0 °F 0.5 °F 10.9 °F 88% 30.11 in 2.5 mi West 11.5 mph 21.9 mph 0.00 in Snow Light Snow
10:01 PM 14.0 °F -2.0 °F 10.4 °F 86% 30.08 in 4.0 mi West 16.1 mph 20.7 mph 0.00 in Snow Light Snow
10:53 PM 14.0 °F -2.5 °F 9.0 °F 80% 30.13 in 3.0 mi West 17.3 mph 23.0 mph 0.00 in Snow Light Snow
11:21 PM 14.0 °F -0.8 °F 8.6 °F 79% 30.10 in 2.5 mi West 13.8 mph - 0.00 in Snow Light Snow
11:53 PM 12.9 °F -0.9 °F 9.0 °F 84% 30.15 in 2.5 mi West 11.5 mph - 0.00 in Snow Light Snow